Temp
83 82 81 81 80 77 78 75 74 74 75 74 72 71 70 70 67 66 65 64 63 62 62 62 62 62 62 63 62 62 62 61 59 61 62 63 63 64 66 64 66 65 66
84 82 81 82 81 78 77 76 76 74 73 72 71 70 69 68 67 66 65 64 62 61 62 62 62 68 61 62 62 60 60 60 60 58 61 61 62 63 63 63 68 72 66
84 82 81 81 81 80 78 77 76 74 72 71 70 69 68 67 66 64 63 63 62 63 62 62 61 62 59 59 60 60 60 62 59 59 60 59 61 61 61 61 63 62 70
84 82 81 82 82 82 77 76 74 74 72 70 69 68 67 66 64 64 63 62 62 63 62 60 59 59 58 58 59 58 59 60 58 58 57 57 58 59 59 57 59 59 62
83 82 82 82 82 78 75 74 74 75 74 71 67 67 66 66 68 63 62 61 61 61 60 60 59 64 68 64 59 56 58 57 56 55 55 55 55 55 55 55 55 55 59
83 82 82 81 77 75 74 73 73 73 72 68 65 65 64 71 68 68 65 61 61 59 57 57 59 66 66 68 68 67 61 57 55 54 53 52 53 53 53 53 53 53 53
83 83 81 79 75 73 72 71 72 71 69 66 65 64 63 63 68 69 70 62 60 59 58 58 62 67 62 59 66 68 67 68 65 57 55 54 53 54 54 52 52 52 53
82 80 78 76 73 72 71 69 71 69 66 66 65 63 61 63 66 67 69 62 61 61 61 60 60 59 60 60 59 58 59 60 60 63 58 58 59 58 57 55 54 54 56
79 79 76 75 71 70 68 68 68 67 65 65 66 61 61 61 64 64 63 61 61 61 62 62 61 59 64 65 59 58 57 59 66 65 64 65 67 67 63 57 55 52 52
77 76 75 73 71 69 68 68 68 66 66 67 64 64 64 61 62 62 62 60 59 60 60 61 66 61 62 62 57 57 55 57 59 59 60 61 63 62 67 58 56 52 51
76 76 73 71 70 69 68 66 65 64 64 62 62 61 62 62 59 61 61 58 60 58 60 59 60 61 60 60 60 56 57 57 59 55 57 57 59 58 60 60 57 56 53
74 73 71 70 70 69 66 64 63 62 62 61 61 60 62 60 61 60 60 59 63 58 59 64 62 59 58 58 59 59 61 61 55 55 54 55 56 63 60 63 61 58 62
71 70 70 69 69 67 64 63 61 61 61 62 64 62 58 61 59 60 59 59 60 58 59 60 62 58 57 57 59 59 60 55 53 53 54 56 57 60 59 58 58 59 59
70 69 68 67 66 65 63 62 60 60 59 62 62 62 58 59 57 55 55 55 59 59 61 59 59 58 59 57 58 58 56 56 56 56 56 59 64 63 60 59 57 60 55
70 68 67 66 64 62 62 63 60 62 61 63 64 65 61 61 62 59 58 58 58 58 57 56 54 54 54 55 57 57 58 61 60 59 57 60 64 61 62 59 57 55 53
68 67 64 63 62 62 61 59 57 58 57 57 58 63 62 62 57 53 53 54 55 55 56 55 55 56 58 59 59 62 63 62 60 59 58 62 58 57 56 57 57 55 53
66 65 63 62 62 62 61 60 58 55 54 53 54 56 55 57 55 52 51 53 54 55 57 59 57 58 61 61 60 59 62 64 62 58 60 60 60 56 59 56 55 54 53
66 60 64 63 63 63 63 62 64 60 60 57 51 51 48 48 48 50 49 53 54 54 60 61 61 61 59 59 59 59 59 58 57 58 59 58 57 59 57 56 54 53 51
66 65 65 65 64 64 66 66 65 62 57 57 56 52 47 46 46 48 51 62 60 58 57 58 59 59 60 60 63 63 60 57 57 58 58 59 60 58 55 54 55 55 54
66 65 64 65 65 65 65 64 61 60 59 59 60 58 52 51 53 53 55 58 59 58 59 61 60 60 61 61 62 59 57 58 57 61 61 60 60 57 55 54 54 52 53
68 66 65 66 66 64 65 65 62 62 62 65 66 64 55 62 60 61 61 60 61 60 60 60 64 62 60 59 60 58 58 58 58 60 56 58 59 58 58 55 55 56 53
68 67 66 65 66 64 63 64 63 63 65 65 68 66 52 65 64 64 64 64 64 64 65 64 59 59 61 63 60 59 58 58 59 57 56 55 55 55 54 54 53 53 53
67 66 66 64 62 60 59 60 59 59 60 60 60 62 62 62 61 62 66 68 67 65 65 64 64 63 61 62 64 60 59 58 58 57 56 55 54 53 53 52 52 52 54
66 65 62 60 58 58 57 57 57 55 59 59 59 59 59 59 60 67 68 67 67 67 66 62 62 64 62 62 61 59 58 57 55 56 55 54 52 51 51 50 51 52 52
62 60 59 57 57 57 57 58 59 59 59 59 59 60 61 62 65 69 70 68 67 66 63 63 62 65 65 62 59 58 51 49 55 51 54 55 54 53 51 49 50 51 52
61 59 59 59 58 58 58 58 59 59 59 61 61 62 64 67 69 69 67 65 64 64 64 63 64 65 66 65 62 51 37 43 51 47 52 51 50 49 48 49 50 50 50
MSLP
1008.12 1008.88 1009.65 1010.34 1010.85 1011.38 1011.83 1012.31 1012.75 1013.28 1013.83 1014.42 1014.95 1015.62 1016.12 1016.58 1017.09 1017.29 1017.71 1017.98 1018.40 1018.65 1018.75 1018.85 1018.94 1018.97 1019.07 1018.88 1018.94 1018.85 1019.25 1019.42 1019.97 1020.02 1019.91 1019.67 1019.57 1019.40 1019.19 1019.08 1019.04 1019.02 1019.12
1007.10 1008.24 1009.11 1009.68 1010.25 1010.86 1011.35 1011.95 1012.54 1013.26 1013.93 1014.47 1015.13 1015.71 1016.32 1016.77 1017.27 1017.52 1017.83 1018.18 1018.36 1018.69 1018.83 1018.96 1019.02 1019.00 1019.04 1018.90 1019.09 1019.36 1019.56 1019.42 1019.83 1020.20 1020.01 1019.89 1019.56 1019.40 1019.37 1019.36 1019.13 1018.83 1019.00
1006.71 1007.50 1008.43 1009.16 1009.49 1010.10 1010.84 1011.67 1012.35 1013.12 1013.78 1014.33 1014.98 1015.55 1016.08 1016.58 1017.07 1017.54 1017.83 1018.00 1018.43 1018.47 1018.59 1018.91 1019.05 1019.17 1019.55 1019.39 1019.43 1019.50 1019.49 1019.53 1019.68 1019.92 1020.09 1020.06 1019.99 1019.85 1019.67 1019.69 1019.62 1019.43 1019.01
1005.84 1006.90 1007.63 1008.32 1008.80 1009.43 1010.40 1011.24 1012.06 1012.78 1013.57 1014.24 1014.77 1015.45 1016.05 1016.59 1017.19 1017.60 1017.96 1018.24 1018.48 1018.62 1018.75 1018.97 1019.28 1019.34 1019.62 1019.62 1019.63 1019.84 1019.76 1019.82 1019.83 1020.19 1020.54 1020.78 1020.63 1020.27 1020.15 1020.50 1020.40 1020.02 1019.67
1004.90 1005.71 1006.68 1007.65 1008.43 1009.24 1010.16 1010.99 1011.79 1012.50 1013.25 1013.93 1014.75 1015.48 1016.00 1016.51 1017.09 1017.49 1017.96 1018.38 1018.63 1018.88 1018.93 1019.00 1019.18 1019.33 1019.45 1019.53 1019.75 1019.95 1020.04 1020.31 1020.40 1020.65 1021.12 1021.22 1021.14 1020.95 1020.93 1020.87 1020.90 1020.59 1020.04
1003.96 1004.68 1005.69 1006.77 1007.93 1008.94 1009.94 1010.79 1011.54 1012.33 1012.87 1013.91 1014.83 1015.54 1016.09 1016.46 1016.99 1017.46 1017.89 1018.41 1018.69 1019.03 1019.31 1019.38 1019.49 1019.45 1019.53 1019.60 1019.75 1019.91 1019.94 1020.34 1020.51 1020.71 1021.13 1021.44 1021.31 1021.06 1021.15 1021.11 1021.04 1021.12 1020.77
1003.35 1004.15 1005.05 1006.04 1007.30 1008.51 1009.76 1010.98 1011.78 1012.41 1013.02 1013.89 1014.58 1015.20 1015.73 1016.06 1016.55 1016.98 1017.65 1018.23 1018.68 1019.11 1019.40 1019.60 1019.83 1019.78 1019.67 1019.67 1019.76 1019.93 1020.04 1020.11 1020.10 1020.30 1020.63 1020.77 1021.02 1021.05 1021.07 1021.15 1021.11 1021.05 1020.98
1003.09 1003.89 1004.67 1005.72 1007.16 1008.54 1009.86 1010.93 1011.17 1012.15 1013.10 1013.80 1014.32 1014.80 1015.43 1015.91 1016.40 1016.83 1017.38 1017.94 1018.48 1018.89 1019.15 1019.36 1019.53 1019.77 1019.71 1019.75 1019.98 1020.17 1020.16 1020.01 1020.09 1020.26 1020.23 1020.29 1020.33 1020.51 1020.79 1021.02 1021.00 1020.96 1020.52
1002.46 1003.46 1004.63 1005.85 1007.16 1008.15 1009.30 1009.95 1010.50 1011.86 1012.88 1013.71 1014.07 1014.72 1015.25 1015.69 1016.11 1016.59 1017.06 1017.64 1018.13 1018.55 1018.79 1019.06 1019.23 1019.48 1019.56 1019.60 1019.88 1020.25 1020.15 1020.00 1019.47 1019.64 1019.83 1019.82 1019.84 1020.00 1020.29 1020.67 1021.06 1021.15 1021.02
1001.88 1003.17 1004.67 1005.81 1006.69 1007.86 1008.76 1009.59 1010.31 1011.58 1012.54 1013.47 1014.14 1014.51 1014.89 1015.55 1015.96 1016.39 1016.85 1017.39 1017.89 1018.27 1018.49 1018.69 1018.84 1019.06 1019.26 1019.36 1019.63 1020.04 1020.25 1020.16 1019.71 1019.62 1019.78 1019.77 1019.69 1019.80 1019.80 1020.21 1020.56 1021.03 1021.04
1002.05 1003.09 1004.37 1005.59 1006.58 1007.63 1009.09 1009.59 1010.56 1011.69 1012.88 1013.54 1014.02 1014.15 1014.76 1015.13 1015.73 1016.22 1016.80 1017.29 1017.80 1018.29 1018.46 1018.53 1018.62 1018.88 1019.14 1019.32 1019.41 1019.65 1019.94 1019.93 1019.89 1019.98 1019.91 1019.76 1019.65 1019.39 1019.33 1019.43 1019.70 1020.11 1020.31
1002.75 1003.68 1004.61 1005.54 1006.21 1007.33 1008.58 1009.93 1010.69 1011.36 1012.66 1013.29 1013.90 1014.11 1014.47 1014.98 1015.37 1015.89 1016.56 1017.00 1017.48 1018.11 1018.47 1018.20 1018.23 1018.47 1018.81 1019.05 1019.24 1019.37 1019.53 1019.64 1019.71 1019.72 1019.72 1019.62 1019.51 1019.04 1018.71 1018.60 1018.73 1018.93 1019.06
1003.10 1004.29 1004.60 1005.68 1006.51 1007.17 1008.24 1009.41 1010.47 1011.41 1012.50 1012.93 1013.48 1013.88 1014.19 1014.69 1015.24 1015.43 1016.09 1016.70 1017.22 1017.75 1017.77 1017.53 1017.52 1018.10 1018.40 1018.79 1018.92 1018.98 1019.23 1019.54 1019.83 1019.94 1019.58 1019.17 1018.80 1018.53 1018.31 1018.31 1018.33 1018.37 1018.43
1003.60 1004.50 1005.12 1005.76 1006.66 1007.39 1008.17 1009.18 1010.22 1011.00 1011.88 1012.25 1012.95 1013.35 1013.74 1014.37 1014.86 1015.13 1015.72 1016.33 1016.78 1017.47 1017.50 1017.36 1017.32 1017.77 1018.21 1018.44 1018.71 1018.58 1018.64 1018.78 1019.06 1019.12 1018.95 1018.47 1018.09 1018.03 1018.11 1018.10 1018.23 1018.25 1018.64
1004.22 1004.59 1005.01 1005.66 1006.32 1007.35 1008.04 1008.92 1009.55 1010.55 1011.21 1011.40 1011.82 1012.29 1012.97 1013.53 1013.84 1014.23 1014.82 1015.69 1016.06 1016.54 1017.16 1017.47 1017.69 1018.07 1018.41 1018.41 1018.41 1018.20 1018.03 1017.99 1018.16 1018.01 1018.08 1017.88 1017.59 1017.63 1017.54 1017.67 1017.76 1017.92 1018.13
1004.30 1004.90 1005.43 1005.95 1006.84 1007.64 1008.06 1009.07 1009.48 1009.74 1010.32 1010.93 1011.36 1011.73 1012.25 1012.65 1012.98 1013.59 1014.02 1014.57 1015.13 1015.78 1016.66 1016.93 1017.14 1017.37 1017.60 1017.63 1017.58 1017.30 1017.08 1017.12 1017.16 1017.23 1017.13 1016.93 1016.97 1017.08 1017.16 1017.34 1017.17 1017.57 1017.71
1004.16 1004.73 1005.42 1005.95 1006.67 1007.21 1007.90 1008.68 1009.39 1009.99 1010.22 1010.28 1010.44 1011.08 1011.56 1012.06 1012.40 1012.79 1013.34 1013.97 1014.52 1015.27 1015.59 1015.69 1016.00 1016.28 1016.37 1016.48 1016.51 1016.38 1016.31 1016.02 1016.06 1016.35 1016.26 1016.02 1016.10 1016.23 1016.55 1016.82 1016.77 1017.10 1017.16
1003.99 1004.37 1004.88 1005.53 1006.22 1006.69 1007.42 1008.07 1008.53 1009.12 1009.64 1010.29 1010.89 1010.61 1011.07 1011.41 1011.73 1012.10 1012.89 1013.81 1014.87 1015.03 1015.03 1015.20 1015.23 1015.34 1015.42 1015.54 1015.49 1015.42 1015.35 1015.32 1015.49 1015.43 1015.52 1015.25 1015.35 1015.50 1015.85 1016.26 1016.38 1016.57 1016.66
1003.62 1004.14 1004.77 1005.27 1005.89 1006.42 1006.85 1007.59 1008.18 1009.06 1009.80 1010.03 1010.82 1011.55 1011.93 1011.88 1012.06 1012.41 1012.53 1013.30 1014.00 1014.33 1014.40 1014.45 1014.46 1014.48 1014.46 1014.35 1014.27 1014.26 1014.27 1014.54 1014.89 1015.20 1015.13 1015.02 1015.09 1015.42 1015.53 1015.64 1015.83 1015.81 1016.05
1003.25 1003.81 1004.47 1004.83 1005.34 1005.89 1006.36 1007.04 1007.93 1008.52 1009.23 1009.65 1010.48 1011.20 1012.08 1012.40 1012.52 1012.68 1012.82 1013.10 1013.38 1013.53 1013.54 1013.50 1013.39 1013.45 1013.59 1013.56 1013.42 1013.37 1013.66 1014.03 1014.23 1014.17 1014.12 1014.46 1014.50 1014.87 1014.90 1015.04 1015.04 1015.27 1015.34
1002.92 1003.47 1003.88 1004.39 1004.91 1005.55 1006.19 1006.59 1007.19 1007.78 1008.43 1008.80 1009.37 1009.86 1010.03 1010.97 1011.57 1011.96 1012.06 1011.75 1012.23 1012.32 1012.47 1012.42 1012.38 1012.44 1012.73 1012.82 1012.94 1013.08 1013.39 1013.46 1013.52 1013.68 1013.77 1013.55 1013.84 1013.90 1014.03 1014.33 1014.59 1014.75 1014.89
1001.63 1002.50 1003.07 1003.56 1004.21 1004.86 1005.40 1005.96 1006.33 1007.11 1007.79 1008.02 1008.68 1009.31 1009.74 1010.37 1010.59 1010.44 1011.00 1010.94 1010.89 1011.11 1011.23 1011.29 1011.48 1011.67 1011.86 1011.80 1011.78 1012.41 1012.61 1012.73 1012.85 1013.09 1013.13 1013.27 1013.57 1013.70 1013.80 1013.98 1014.09 1014.20 1014.29
1001.23 1001.92 1002.69 1003.33 1003.92 1004.45 1005.15 1005.80 1006.39 1007.07 1007.36 1007.70 1007.87 1008.23 1010.29 1011.01 1010.72 1010.33 1009.82 1009.71 1009.83 1010.14 1010.27 1010.47 1010.63 1010.85 1010.97 1010.74 1010.71 1011.46 1011.83 1011.88 1012.03 1012.35 1012.77 1013.14 1013.43 1013.62 1013.66 1013.81 1013.90 1013.98 1013.91
1000.88 1001.61 1002.45 1003.40 1003.97 1004.45 1005.17 1005.99 1006.72 1007.10 1007.15 1007.45 1008.15 1008.88 1009.66 1010.27 1010.07 1009.36 1008.87 1008.87 1009.14 1009.21 1009.41 1009.80 1009.73 1009.91 1010.19 1010.47 1010.69 1010.81 1011.11 1011.41 1011.77 1012.04 1012.36 1012.75 1013.12 1013.25 1013.35 1013.52 1013.55 1013.55 1013.58
1001.01 1001.51 1002.34 1003.19 1003.91 1004.54 1005.18 1005.72 1006.21 1006.27 1006.63 1007.13 1007.68 1008.40 1008.95 1009.13 1008.91 1008.55 1008.03 1008.03 1008.26 1008.65 1008.72 1008.89 1008.99 1009.21 1009.55 1009.82 1010.28 1010.44 1010.65 1010.78 1011.13 1011.48 1011.81 1012.22 1012.48 1012.69 1012.89 1013.02 1013.10 1013.13 1013.06
1000.82 1001.57 1002.44 1003.15 1003.78 1004.35 1004.88 1005.31 1005.73 1006.25 1006.73 1007.17 1007.71 1008.07 1007.89 1007.87 1007.32 1007.13 1006.97 1007.11 1007.36 1007.71 1007.92 1008.17 1008.24 1008.45 1008.73 1008.95 1009.34 1009.74 1010.27 1010.59 1010.91 1011.11 1011.49 1011.97 1012.24 1012.35 1012.45 1012.56 1012.57 1012.69 1012.63
Wind_Speed
16 14 13 10 9 7 9 7 8 7 10 10 9 7 7 6 6 6 6 7 7 5 3 4 3 2 3 4 3 3 4 3 4 2 1 2 1 1 4 4 3 4 4
18 15 13 12 11 9 9 9 11 11 8 8 7 7 7 6 6 7 6 6 7 6 4 5 4 3 5 5 5 4 4 3 4 2 4 3 1 2 2 4 4 2 4
16 15 14 13 13 12 11 11 12 12 10 9 8 8 8 7 7 6 7 7 6 6 6 5 3 6 5 4 4 4 3 3 2 2 2 2 3 3 5 4 5 5 2
17 15 15 16 15 13 12 13 13 12 11 8 7 7 7 7 7 7 7 6 6 5 5 7 6 7 5 4 5 5 4 6 5 4 5 2 2 2 4 4 6 3 3
19 17 16 14 12 12 14 14 13 13 11 10 8 7 7 7 7 8 6 6 6 5 6 6 6 8 9 7 4 3 5 4 4 4 4 3 3 4 3 1 2 2 3
18 17 17 16 12 14 14 13 13 12 12 9 8 7 7 5 15 12 8 6 6 7 6 5 4 8 7 9 9 7 6 5 3 4 2 2 1 0 2 1 1 3 3
16 15 16 16 17 16 14 13 12 12 11 9 9 8 8 6 19 16 14 6 6 6 7 6 4 4 6 4 5 4 2 4 6 6 4 3 1 2 1 3 2 1 3
14 14 15 17 17 15 15 12 13 11 10 10 9 8 7 7 13 14 14 8 6 6 7 7 7 6 6 6 4 2 5 4 3 2 4 5 4 3 3 2 3 3 3
14 14 15 16 17 17 16 15 13 12 9 8 9 9 10 8 13 13 10 7 7 7 6 5 7 7 9 10 5 2 3 5 7 9 9 8 7 7 4 2 4 3 2
14 15 15 15 17 15 14 15 12 11 11 8 8 10 11 9 12 12 9 4 7 5 5 6 10 9 9 8 6 3 2 2 3 1 5 5 6 6 9 6 4 2 2
14 16 16 16 16 13 10 9 9 10 8 6 7 7 9 10 9 13 10 5 4 3 4 5 5 10 11 9 8 5 6 3 2 1 5 5 5 5 6 6 6 5 3
14 15 16 16 13 13 15 10 11 11 8 7 7 6 7 7 12 12 12 8 7 4 3 5 5 13 12 11 7 8 7 2 2 3 3 4 4 4 5 7 8 7 6
14 13 13 12 11 13 15 13 11 9 8 7 8 8 5 6 6 13 13 9 7 3 3 5 13 15 14 8 10 10 6 3 3 3 5 5 4 5 5 3 5 6 5
11 12 11 13 12 11 9 10 9 8 7 8 9 8 5 6 5 5 5 5 7 6 5 2 6 7 7 6 5 6 5 5 5 5 5 6 4 1 3 4 4 5 3
8 8 11 9 13 12 10 10 10 8 9 9 9 9 8 9 8 11 10 7 7 9 6 3 3 3 4 4 5 5 5 6 6 6 6 7 7 3 4 3 3 3 4
7 8 8 10 9 8 9 5 4 7 13 13 12 9 4 10 14 17 17 15 14 13 4 4 4 5 6 7 7 8 6 7 6 6 6 7 6 5 4 3 3 3 3
9 9 8 9 9 10 9 10 9 2 4 9 13 15 13 12 18 19 19 17 15 11 4 5 6 6 7 7 7 7 9 8 6 6 7 7 7 5 5 4 4 4 4
9 11 10 10 10 9 9 9 9 8 10 6 2 6 9 12 12 18 16 14 3 2 5 6 7 7 6 6 6 6 6 5 5 5 5 5 5 5 4 4 5 5 3
9 9 9 9 8 8 8 9 9 7 5 5 4 5 4 9 8 10 14 8 7 5 5 5 5 5 6 5 5 6 7 5 3 2 4 4 4 5 5 5 5 6 6
10 13 11 9 7 8 7 5 8 8 8 7 7 6 5 3 3 4 4 4 4 5 6 7 6 5 5 6 7 6 4 4 4 4 4 4 4 6 5 5 5 4 4
9 10 14 9 8 7 7 8 9 8 9 9 9 11 16 11 9 8 9 8 8 7 7 6 6 5 4 5 5 4 5 5 5 5 5 4 5 3 5 4 5 5 5
11 10 10 9 9 6 7 6 8 6 8 8 7 9 18 8 7 8 8 9 9 9 8 7 5 5 5 3 5 5 6 5 5 3 3 2 2 2 2 2 3 4 4
7 8 9 7 7 9 7 6 6 5 6 6 7 6 8 3 3 6 11 9 7 7 7 7 6 5 5 5 5 5 5 5 5 5 5 3 2 1 1 1 1 3 4
9 9 9 7 7 8 9 8 7 8 9 9 8 7 5 5 11 15 10 7 7 8 6 5 5 7 5 6 5 5 5 5 5 6 7 5 3 1 1 1 2 3 2
9 9 9 10 10 9 10 8 6 6 6 5 6 7 10 11 15 15 9 7 6 7 7 6 5 7 9 10 8 9 10 14 9 9 5 5 4 4 3 3 3 4 4
10 11 10 9 9 8 8 7 6 6 5 4 7 8 10 12 10 10 6 6 6 6 7 6 6 8 8 8 11 12 11 11 9 8 5 4 4 3 3 3 5 2 4
Wind_Direction
176 180 178 182 172 172 170 155 160 132 142 145 141 138 134 135 115 123 125 115 110 110 99 105 78 68 38 45 55 70 74 89 100 5 90 209 165 78 336 328 322 175 187
177 176 179 179 175 171 167 155 144 141 138 133 133 130 133 143 135 133 135 129 134 126 135 100 74 74 73 57 66 42 50 71 124 165 209 210 170 46 335 8 333 124 189
176 172 175 184 180 180 171 154 147 142 141 138 135 143 151 151 152 136 145 148 152 159 156 147 131 89 55 44 58 66 39 33 60 115 238 46 39 29 33 12 5 346 175
170 172 180 187 187 179 155 150 149 149 144 144 142 147 146 146 133 141 140 139 145 151 112 102 98 101 99 88 82 68 48 46 30 47 57 67 77 353 77 53 1 352 352
173 175 183 181 179 155 151 153 149 150 150 140 138 148 148 148 147 144 143 151 155 128 121 117 120 124 109 101 105 83 82 72 68 77 69 33 15 29 61 337 15 313 311
178 179 173 170 159 153 152 152 151 150 140 140 146 146 151 161 149 149 151 151 141 130 125 118 136 126 120 114 106 116 135 119 95 108 130 114 348 18 7 21 15 35 341
178 177 173 164 156 153 148 146 150 147 145 150 149 154 168 169 163 159 157 155 148 154 153 158 177 179 149 139 130 112 95 147 147 150 130 167 174 244 111 357 334 155 224
180 176 165 157 150 143 142 155 150 150 154 157 161 160 150 160 159 149 154 160 157 172 177 186 179 163 173 166 167 237 267 242 224 209 182 196 194 204 149 191 244 277 305
173 169 158 148 144 149 156 162 149 150 151 163 165 147 153 163 160 155 143 157 162 171 184 170 159 168 180 160 150 176 0 251 248 216 217 207 198 185 166 57 346 37 329
156 147 144 147 148 155 166 160 147 147 158 163 167 160 161 168 172 167 162 150 159 171 186 190 165 177 189 168 155 158 98 195 38 346 298 295 273 233 207 187 183 230 236
144 140 139 145 152 151 149 135 132 136 149 165 168 150 161 170 180 175 186 146 150 176 198 196 205 172 182 190 180 185 207 178 339 315 290 295 280 251 200 206 199 181 210
133 140 144 152 154 146 139 144 139 137 163 165 166 160 161 166 175 183 196 168 151 128 243 219 201 180 190 196 192 220 240 240 260 284 292 277 276 274 210 202 211 211 219
143 156 150 147 149 149 147 149 149 152 173 174 175 181 161 170 178 180 192 194 189 160 244 239 178 184 194 202 213 214 223 236 257 273 268 268 224 233 240 213 230 238 227
149 149 146 146 149 146 143 152 151 163 179 178 183 181 164 164 175 171 178 182 199 184 243 279 159 161 182 206 227 231 215 210 210 223 236 253 268 207 216 201 201 220 200
178 154 157 151 150 152 155 165 157 188 193 186 187 179 173 177 193 181 172 178 190 190 175 167 135 169 218 228 239 236 232 221 221 224 229 247 256 208 214 211 220 204 191
160 161 152 147 148 159 152 140 80 196 205 207 181 185 183 187 184 183 182 182 183 168 160 183 191 193 207 218 224 238 231 225 223 229 226 238 232 219 220 240 193 202 223
164 158 154 151 156 154 164 182 174 78 75 186 179 200 175 185 197 188 186 186 194 157 189 195 199 202 221 221 220 216 236 238 230 224 227 233 221 202 188 222 208 206 247
173 163 159 159 163 173 184 182 184 183 175 157 291 150 154 158 182 187 159 127 129 235 190 202 208 216 219 213 214 216 222 233 231 238 242 222 198 186 183 203 215 222 236
170 168 169 168 179 188 180 176 183 161 159 148 106 65 60 89 90 127 147 171 181 197 209 219 219 218 226 224 227 218 213 209 202 238 256 211 194 199 221 219 227 222 187
179 179 178 178 175 184 176 176 173 158 171 169 166 170 147 113 146 164 177 186 192 209 204 211 214 212 223 230 236 223 195 182 207 224 233 207 203 213 211 224 221 212 201
182 182 184 178 183 183 192 192 170 174 182 186 187 178 177 180 181 186 198 192 204 212 220 220 228 213 203 213 214 245 207 214 203 221 222 219 230 202 201 206 203 196 187
178 183 184 182 183 177 179 171 149 145 179 183 191 184 177 194 197 190 202 209 206 212 218 220 217 203 213 212 174 186 200 204 216 227 241 215 223 209 213 226 219 208 209
178 161 179 175 140 130 110 102 97 112 115 110 103 121 158 206 292 242 222 218 211 212 214 206 208 206 225 213 175 190 178 172 170 158 147 131 114 86 63 75 319 276 249
167 152 140 137 131 124 122 126 135 138 118 103 93 83 97 217 238 250 228 214 216 220 210 201 200 211 170 171 164 135 128 107 117 118 126 125 118 27 4 312 294 291 293
138 131 140 140 142 143 139 143 147 123 116 122 142 182 201 222 242 237 231 208 188 175 175 168 167 173 173 181 162 158 157 148 154 157 145 147 182 232 241 242 252 266 260
146 142 146 145 140 142 146 134 129 135 146 192 220 225 234 246 221 209 185 178 162 177 169 170 172 170 183 184 173 165 160 158 156 162 147 160 192 224 228 250 276 273 291